EW2974 Weather Reports


Display with metric or nautical units.
time (UTC)temp
F
wind
direction
speed
MPH
gust
MPH
rain 1hr
in
rain 24hr
in
rain mn
in
humidity
%
barometer
mb
20260502170405 41 326 0.0 1.0 0.00 0.27 0.15 81 1016.9
20260502163905 39 74 0.0 0.0 0.00 0.30 0.15 82 1017.0
20260502163405 39 5 0.0 0.0 0.00 0.31 0.15 85 1017.0
20260502162905 39 5 0.0 0.0 0.00 0.33 0.15 85 1016.9
20260502162405 39 28 0.0 0.0 0.00 0.34 0.15 87 1017.0
20260502161405 38 28 0.0 0.0 0.00 0.36 0.15 86 1017.0
20260502160905 38 22 0.0 0.0 0.00 0.37 0.15 86 1017.0
20260502160405 39 69 1.0 3.0 0.00 0.38 0.15 87 1016.8
20260502151405 38 72 0.0 0.0 0.00 0.44 0.15 91 1016.7
20260502150905 37 77 0.0 0.0 0.00 0.45 0.15 91 1016.8
20260502150405 37 77 0.0 0.0 0.00 0.46 0.15 91 1016.8
20260502130405 36 332 0.0 0.0 0.00 0.51 0.14 93 1016.1
20260502122905 36 331 0.0 0.0 0.01 0.52 0.14 94 1016.2
20260502122405 36 331 0.0 0.0 0.01 0.52 0.14 94 1016.1
20260502121905 36 331 0.0 0.0 0.01 0.52 0.14 94 1016.1
20260502121405 36 329 0.0 0.0 0.01 0.52 0.14 94 1016.0
20260502120905 36 330 0.0 0.0 0.02 0.52 0.14 94 1015.9
20260502120405 36 329 0.0 0.0 0.02 0.52 0.14 94 1015.8
20260502115905 36 329 0.0 0.0 0.03 0.52 0.14 94 1015.7
20260502115404 36 329 0.0 0.0 0.03 0.52 0.14 94 1015.6
20260502114404 36 329 0.0 0.0 0.03 0.52 0.14 93 1015.6
20260502113905 36 330 0.0 0.0 0.04 0.52 0.14 93 1015.7
20260502112905 35 329 0.0 0.0 0.05 0.51 0.13 93 1015.8
20260502112405 35 329 0.0 0.0 0.05 0.51 0.13 93 1015.9
20260502111905 35 330 0.0 0.0 0.05 0.51 0.13 93 1015.9
20260502111404 35 329 0.0 0.0 0.05 0.51 0.13 93 1015.8
20260502110905 36 330 0.0 0.0 0.04 0.50 0.12 93 1015.7
20260502105905 36 329 0.0 0.0 0.04 0.49 0.11 93 1015.5
20260502105405 36 330 0.0 0.0 0.04 0.49 0.11 93 1015.5
20260502104905 36 329 0.0 0.0 0.04 0.49 0.11 93 1015.5
20260502103405 36 329 0.0 0.0 0.02 0.47 0.09 92 1015.3
20260502102905 37 329 0.0 0.0 0.01 0.46 0.08 93 1015.2
20260502101905 37 329 0.0 0.0 0.02 0.46 0.08 93 1015.2
20260502101405 37 329 0.0 0.0 0.04 0.46 0.08 93 1015.1
20260502100905 37 329 0.0 0.0 0.06 0.46 0.08 93 1015.1
20260502100404 37 329 0.0 0.0 0.05 0.45 0.07 93 1015.2
20260502091405 38 329 0.0 0.0 0.03 0.42 0.04 91 1015.0
20260502090905 38 329 0.0 0.0 0.01 0.40 0.02 91 1015.1
20260502090404 38 329 0.0 0.0 0.01 0.40 0.02 92 1015.1
20260502071405 39 329 0.0 0.0 0.00 0.38 0.00 93 1014.8
20260502070905 39 329 0.0 0.0 0.00 0.38 0.00 93 1014.8
20260502070405 39 329 0.0 0.0 0.00 0.38 0.00 93 1014.9
20260502065405 39 329 0.0 0.0 0.00 0.38 0.00 93 1014.9
20260502064904 39 329 0.0 0.0 0.00 0.38 0.00 93 1014.9
20260502064405 39 329 0.0 0.0 0.00 0.38 0.00 93 1015.0
20260502063905 39 329 0.0 0.0 0.00 0.38 0.00 93 1015.0
20260502063405 39 329 0.0 0.0 0.00 0.38 0.00 93 1015.0
20260502062905 39 329 0.0 0.0 0.00 0.38 0.00 93 1015.0
20260502062404 39 329 0.0 0.0 0.00 0.38 0.00 93 1015.0
20260502061904 39 329 0.0 0.0 0.00 0.38 0.00 93 1015.1
20260502060905 39 329 0.0 0.0 0.00 0.38 0.00 93 1015.2
20260502060404 39 329 0.0 0.0 0.00 0.38 0.00 93 1015.3
20260502055904 39 329 0.0 0.0 0.00 0.38 0.00 93 1015.3
20260502055405 39 329 0.0 0.0 0.00 0.38 0.00 93 1015.3
20260502054905 39 329 0.0 0.0 0.00 0.38 0.00 93 1015.2
20260502053405 39 329 0.0 0.0 0.00 0.38 0.00 93 1015.5
20260502052905 39 329 0.0 0.0 0.00 0.38 0.00 93 1015.5
20260502052405 39 329 0.0 0.0 0.00 0.38 0.00 93 1015.5
20260502051905 39 329 0.0 0.0 0.00 0.38 0.00 93 1015.4
20260502051405 38 329 0.0 0.0 0.00 0.38 0.00 93 1015.5
20260502050905 39 329 0.0 0.0 0.00 0.38 0.00 93 1015.5
20260502045905 38 329 0.0 0.0 0.00 0.38 0.00 93 1015.6
20260502044905 38 329 0.0 0.0 0.00 0.38 0.00 93 1015.7
20260502044405 38 329 0.0 0.0 0.00 0.38 0.00 93 1015.6
20260502043904 38 329 0.0 0.0 0.00 0.38 0.00 93 1015.6
20260502042904 38 329 0.0 0.0 0.00 0.38 0.00 93 1015.6
20260502042405 38 329 0.0 0.0 0.00 0.38 0.00 93 1015.6
20260502041905 38 329 0.0 0.0 0.00 0.38 0.00 93 1015.6
20260502041405 38 329 0.0 0.0 0.00 0.38 0.00 93 1015.6
20260502040904 38 329 0.0 0.0 0.00 0.38 0.00 93 1015.7
20260502040405 38 329 0.0 0.0 0.00 0.38 0.00 93 1015.7
20260502035905 38 329 0.0 0.0 0.00 0.38 0.38 93 1015.6
20260502035404 38 329 0.0 0.0 0.00 0.38 0.38 93 1015.6
20260502034905 37 329 0.0 0.0 0.00 0.38 0.38 93 1015.5
20260502034404 37 329 0.0 0.0 0.00 0.38 0.38 93 1015.5
20260502033905 37 329 0.0 0.0 0.00 0.38 0.38 93 1015.5
20260502033404 37 329 0.0 0.0 0.00 0.38 0.38 93 1015.5
20260502032404 37 329 0.0 0.0 0.00 0.38 0.38 93 1015.6
20260502031905 37 329 0.0 0.0 0.00 0.38 0.38 93 1015.5
20260502031405 37 329 0.0 0.0 0.00 0.38 0.38 92 1015.5
20260502030905 37 329 0.0 0.0 0.00 0.38 0.38 92 1015.4
20260502030405 37 329 0.0 0.0 0.00 0.38 0.38 92 1015.4
20260502025905 37 330 0.0 0.0 0.00 0.38 0.38 92 1015.3
20260502024905 37 330 0.0 0.0 0.00 0.38 0.38 92 1015.3
20260502024405 37 329 0.0 0.0 0.00 0.38 0.38 92 1015.3
20260502023905 37 329 0.0 0.0 0.00 0.38 0.38 92 1015.3
20260502022405 37 329 0.0 0.0 0.00 0.38 0.38 91 1015.4
20260502021905 37 329 0.0 0.0 0.00 0.38 0.38 91 1015.4
20260502021405 37 329 0.0 0.0 0.00 0.38 0.38 91 1015.3
20260502020905 38 329 0.0 0.0 0.00 0.38 0.38 91 1015.3
20260502020405 38 329 0.0 0.0 0.00 0.38 0.38 91 1015.2
20260502015905 38 329 0.0 0.0 0.00 0.38 0.38 91 1015.1
20260502015407 38 329 0.0 0.0 0.00 0.38 0.38 91 1015.0
20260502014905 38 329 0.0 0.0 0.00 0.38 0.38 91 1015.0
20260502014405 38 329 0.0 0.0 0.00 0.38 0.38 91 1014.9
20260502013905 38 329 0.0 0.0 0.00 0.38 0.38 90 1014.8
20260502012905 39 330 0.0 0.0 0.00 0.38 0.38 90 1014.6
20260502012404 39 329 0.0 0.0 0.00 0.38 0.38 90 1014.6
20260502010905 39 329 0.0 0.0 0.00 0.38 0.38 90 1014.6
20260502010405 40 329 0.0 0.0 0.00 0.38 0.38 89 1014.6
20260502005905 40 329 0.0 0.0 0.00 0.38 0.38 89 1014.4
20260502005406 40 329 0.0 0.0 0.00 0.38 0.38 89 1014.3
20260502004905 41 329 0.0 0.0 0.00 0.38 0.38 88 1014.1
20260502004405 41 329 0.0 0.0 0.00 0.38 0.38 89 1013.9
20260502003405 41 329 0.0 0.0 0.00 0.38 0.38 88 1013.7
20260502002905 42 329 0.0 0.0 0.00 0.38 0.38 88 1013.6
20260502002405 42 329 0.0 0.0 0.00 0.38 0.38 87 1013.5
20260502001404 42 329 0.0 0.0 0.00 0.38 0.38 86 1013.4
20260502000904 42 329 0.0 0.0 0.00 0.38 0.38 86 1013.4
20260502000405 42 329 0.0 0.0 0.00 0.38 0.38 87 1013.4
20260501235904 42 329 0.0 0.0 0.00 0.38 0.38 87 1013.4
20260501234905 42 329 0.0 0.0 0.00 0.38 0.38 86 1013.4
20260501234405 42 329 0.0 0.0 0.00 0.38 0.38 86 1013.3
20260501233905 42 329 0.0 0.0 0.00 0.38 0.38 86 1013.2
20260501233405 42 329 0.0 0.0 0.00 0.38 0.38 86 1013.2
20260501232904 43 329 0.0 0.0 0.00 0.38 0.38 85 1013.1
20260501232404 43 330 0.0 0.0 0.00 0.38 0.38 84 1013.1
20260501231904 43 329 0.0 0.0 0.00 0.38 0.38 84 1013.0
20260501230904 43 329 0.0 0.0 0.00 0.38 0.38 84 1012.9
20260501225905 43 329 0.0 0.0 0.00 0.38 0.38 86 1013.0
20260501225404 43 329 0.0 0.0 0.00 0.38 0.38 86 1013.0
20260501224905 43 13 0.0 0.0 0.00 0.38 0.38 85 1012.9
20260501224405 43 13 0.0 0.0 0.00 0.38 0.38 84 1012.7
20260501223404 42 13 0.0 0.0 0.00 0.38 0.38 86 1012.8
20260501222904 42 13 0.0 0.0 0.00 0.38 0.38 85 1012.7
20260501222404 42 13 0.0 0.0 0.00 0.38 0.38 85 1012.6
20260501221905 42 13 0.0 0.0 0.00 0.38 0.38 86 1012.7
20260501221405 42 13 0.0 0.0 0.00 0.38 0.38 87 1012.7
20260501220905 42 13 0.0 0.0 0.00 0.38 0.38 87 1012.7
20260501220405 42 5 0.0 6.0 0.00 0.38 0.38 86 1012.5
20260501215905 42 32 0.0 0.0 0.00 0.38 0.38 87 1012.4
20260501215405 42 32 0.0 1.0 0.00 0.38 0.38 87 1012.5
20260501214904 42 32 0.0 0.0 0.00 0.38 0.38 88 1012.5
20260501214404 42 34 0.0 0.0 0.00 0.38 0.38 88 1012.5
20260501213904 42 34 0.0 0.0 0.00 0.38 0.38 88 1012.5
20260501213404 42 34 0.0 0.0 0.00 0.38 0.38 89 1012.5
20260501212904 42 23 0.0 0.0 0.00 0.38 0.38 89 1012.4
20260501211904 42 43 0.0 0.0 0.00 0.38 0.38 89 1012.1
20260501211405 42 21 0.0 0.0 0.00 0.38 0.38 90 1012.1
20260501210905 42 89 0.0 0.0 0.00 0.38 0.38 92 1012.0
20260501210405 41 89 0.0 0.0 0.00 0.38 0.38 90 1012.0
20260501205904 41 5 0.0 0.0 0.00 0.38 0.38 90 1011.8
20260501205404 42 5 0.0 3.0 0.00 0.38 0.38 90 1011.8
20260501204405 42 57 1.0 3.0 0.00 0.38 0.38 91 1011.8
20260501203905 42 36 0.0 0.0 0.00 0.38 0.38 90 1011.8
20260501202905 42 34 0.0 5.0 0.01 0.38 0.38 90 1011.8
20260501202404 42 31 0.0 0.0 0.01 0.38 0.38 91 1011.7
20260501201905 42 31 0.0 0.0 0.01 0.38 0.38 90 1011.6
20260501201404 42 31 0.0 9.0 0.01 0.38 0.38 90 1011.6
20260501200905 42 16 0.0 0.0 0.02 0.38 0.38 90 1011.6
20260501195904 43 24 0.0 0.0 0.03 0.38 0.38 90 1011.4
20260501195405 43 25 0.0 1.0 0.03 0.38 0.38 90 1011.2
20260501194905 43 12 0.0 3.0 0.04 0.38 0.38 89 1011.3
20260501193905 44 261 0.0 0.0 0.04 0.38 0.38 91 1011.2
20260501193404 44 261 0.0 0.0 0.04 0.38 0.38 91 1011.1
20260501192904 44 261 0.0 0.0 0.04 0.37 0.37 91 1011.2
20260501192404 44 261 0.0 0.0 0.04 0.37 0.37 91 1011.2
20260501191904 44 261 0.0 0.0 0.05 0.37 0.37 91 1011.2
20260501191405 44 261 0.0 0.0 0.05 0.37 0.37 91 1011.2
20260501190905 44 261 0.0 0.0 0.04 0.36 0.36 91 1011.2
20260501185905 44 261 0.0 1.0 0.05 0.35 0.35 91 1011.2
20260501185404 44 261 0.0 0.0 0.05 0.35 0.35 90 1011.2
20260501184904 44 261 0.0 0.0 0.04 0.34 0.34 91 1011.2
20260501182904 44 258 1.0 6.0 0.05 0.33 0.33 90 1011.3
20260501181905 44 255 1.0 9.0 0.05 0.32 0.32 91 1011.3
20260501181404 44 246 0.0 0.0 0.06 0.32 0.32 91 1011.2
20260501180905 44 244 0.0 0.0 0.06 0.32 0.32 91 1011.2
20260501180404 44 214 0.0 5.0 0.05 0.31 0.31 90 1011.3
20260501175904 44 217 1.0 5.0 0.04 0.30 0.30 90 1011.3
20260501175404 44 267 0.0 9.0 0.05 0.30 0.30 90 1011.4
20260501174904 44 257 6.0 13.0 0.06 0.30 0.30 89 1011.3
20260501174405 44 217 1.0 5.0 0.05 0.29 0.29 90 1011.2
20260501173904 44 272 7.0 13.0 0.06 0.29 0.29 90 1011.3
20260501173404 44 266 0.0 0.0 0.06 0.28 0.28 91 1011.3
20260501172904 44 266 0.0 0.0 0.08 0.28 0.28 91 1011.4
20260501172405 44 266 0.0 0.0 0.08 0.27 0.27 91 1011.4
20260501171904 44 266 2.0 5.0 0.09 0.27 0.27 91 1011.2
20260501171405 44 264 0.0 0.0 0.09 0.26 0.26 91 1011.2